Wind_Speed
9 8 6 5 5 5 5 5 7 9 10 12 12 12 12 11 10 8 6 5 4 4 5 5 6 6 6 5 3 2 2 2 2 3 3 2 2 1 1 1 2 2 2 2 2 1 2 2 2
9 8 6 5 4 5 5 6 8 11 14 14 14 13 13 11 9 8 7 5 4 5 5 5 6 6 6 6 5 3 3 3 2 3 3 3 2 2 2 2 2 3 2 2 2 2 1 1 1
9 8 6 4 3 5 5 7 10 14 16 15 16 16 14 11 9 9 8 6 6 6 6 6 7 7 7 7 6 5 4 3 3 3 3 3 3 3 3 3 3 3 3 3 3 3 2 2 1
9 8 6 4 4 6 6 8 12 16 17 18 19 18 14 11 10 9 8 6 6 6 6 6 7 8 8 8 7 6 5 4 4 4 4 4 4 4 4 4 4 4 5 5 4 4 3 3 2
9 7 6 4 5 7 6 9 13 17 21 21 20 19 16 12 11 10 8 7 6 6 7 8 8 8 9 9 8 8 6 6 5 5 5 5 5 5 5 6 5 5 6 6 5 5 4 4 3
8 6 5 5 6 6 8 11 16 18 22 22 21 19 18 13 11 10 9 8 7 7 8 9 9 9 9 10 10 9 8 7 7 6 6 6 6 6 7 7 7 7 7 7 6 5 5 5 4
8 7 7 7 6 7 9 12 17 20 22 22 20 18 16 13 11 11 11 10 9 9 9 10 10 11 11 11 11 10 9 8 8 8 7 6 6 7 8 8 8 8 8 8 7 6 6 6 5
9 8 8 8 8 7 9 13 17 20 22 21 20 18 16 14 12 12 12 12 12 12 11 11 12 12 12 12 12 11 10 10 9 8 8 8 8 8 8 8 8 9 8 8 7 7 7 7 6
9 8 9 9 9 10 12 15 19 21 21 21 19 18 18 16 14 13 14 14 14 13 13 14 13 13 13 13 13 12 11 11 10 9 9 9 9 9 9 9 9 8 8 8 7 8 8 7 6
9 9 10 10 10 11 14 15 19 20 20 20 19 19 19 17 16 15 15 15 15 14 14 15 15 14 14 14 13 13 12 11 11 10 9 9 9 9 9 9 9 9 8 8 8 8 8 8 6
10 10 10 11 11 12 14 15 17 18 18 18 18 19 20 19 18 15 14 14 15 15 16 16 16 15 15 15 14 14 12 11 10 10 10 10 9 9 9 9 9 9 8 8 8 8 7 7 6
11 11 12 11 11 12 14 15 15 16 16 18 19 20 19 20 17 16 15 13 13 14 16 16 16 16 17 16 14 14 13 11 10 10 9 9 9 9 8 8 8 8 8 7 7 6 6 5 5
12 12 12 11 11 12 13 13 13 14 16 17 19 19 20 20 19 18 15 14 15 17 17 17 17 17 17 17 15 14 13 12 11 11 10 9 9 8 7 7 7 7 7 7 6 6 5 5 5
12 11 10 10 10 11 11 13 14 14 15 17 18 19 20 20 19 18 16 15 16 18 18 18 18 19 18 18 17 15 14 13 12 11 11 9 8 8 7 6 5 5 5 5 5 5 4 4 4
10 9 8 8 9 10 11 11 12 15 16 17 18 19 21 20 19 19 16 16 16 17 18 19 19 20 18 17 17 16 15 14 13 11 11 10 8 8 7 6 5 5 5 4 4 4 4 3 3
10 8 7 8 10 10 12 11 13 15 16 17 18 20 21 20 19 17 15 15 15 16 18 19 19 19 19 17 16 15 15 14 13 13 11 10 9 9 8 7 6 6 5 4 3 3 3 3 3
9 8 7 8 10 13 15 13 13 14 17 18 19 20 19 18 17 15 13 13 13 15 18 19 19 18 18 18 17 16 15 14 14 13 12 11 10 9 8 7 6 6 5 4 4 3 2 2 2
9 8 8 9 12 15 16 16 16 16 17 18 18 18 18 17 16 15 12 11 13 15 17 19 20 19 17 17 17 16 16 14 13 12 11 11 10 10 9 7 7 6 5 5 4 3 2 1 1
9 9 10 11 14 16 17 17 18 16 17 17 17 16 15 15 15 13 11 9 10 13 16 16 19 19 17 17 17 17 16 14 13 12 11 12 11 10 9 8 7 6 6 5 5 4 2 2 1
9 10 10 12 15 16 18 18 18 18 16 16 16 15 14 13 12 11 9 6 7 11 13 14 15 17 17 17 17 17 16 14 13 13 12 12 11 10 9 9 8 7 6 6 5 4 3 2 2
10 10 12 13 16 18 18 19 18 16 15 15 15 14 13 12 10 9 6 3 5 9 11 12 12 16 17 18 18 17 15 14 13 13 12 12 12 11 10 10 9 8 7 6 5 5 4 2 1
10 11 13 15 16 17 18 19 18 17 14 13 12 10 11 10 9 7 3 2 3 6 8 10 12 14 16 17 17 16 15 15 14 14 13 13 13 12 11 11 10 8 7 6 6 5 4 2 1
11 12 14 16 16 17 16 18 18 16 13 9 8 8 10 9 8 6 3 1 4 5 7 11 12 14 15 17 17 17 16 15 13 15 14 13 13 13 12 11 10 9 7 7 6 5 3 2 1
12 14 15 16 16 17 15 17 15 13 9 6 6 7 8 8 7 6 4 2 4 7 8 11 12 14 15 16 17 16 16 14 14 15 14 14 13 13 12 11 9 8 7 6 5 4 3 2 2
14 15 17 17 16 15 15 15 12 8 6 4 5 5 6 6 6 4 4 3 4 6 7 10 12 13 14 15 16 16 15 15 15 14 14 14 13 13 12 10 9 8 7 6 5 5 4 4 4
15 16 16 17 16 15 15 14 11 8 6 5 5 6 5 5 5 4 3 3 4 5 6 8 10 13 14 15 16 16 15 14 15 14 14 13 13 13 12 10 9 8 7 6 6 6 5 5 5
16 16 16 17 17 17 14 13 9 8 6 5 5 6 5 3 3 3 3 3 3 5 6 7 10 12 13 14 16 15 15 15 15 14 13 13 14 13 12 10 10 9 8 8 8 7 7 7 7
18 17 17 18 19 18 15 13 11 9 6 6 5 5 4 2 1 1 2 2 3 5 5 6 9 11 12 13 14 14 15 15 15 15 14 14 14 13 11 11 10 10 9 9 9 9 9 10 11
19 19 20 20 20 19 18 14 11 10 9 8 6 5 4 3 1 1 2 3 4 5 6 6 8 10 11 12 12 13 14 15 15 15 15 14 14 13 12 12 11 11 11 11 12 12 13 13 14
21 20 20 21 21 21 20 17 14 13 12 11 9 6 4 3 2 3 3 4 5 6 6 7 8 9 11 11 12 13 14 14 15 15 15 15 15 15 14 14 14 14 14 15 15 15 16 16 17
Wind_Direction
336 332 334 342 339 346 343 346 349 348 342 337 331 327 322 325 323 323 311 296 251 227 212 206 205 202 200 199 204 219 234 250 279 288 287 286 291 300 312 335 348 350 355 2 6 19 50 60 66
332 329 334 338 331 323 335 343 348 346 336 331 326 319 316 322 313 301 295 281 257 239 226 219 213 208 208 210 210 216 226 236 261 278 281 284 291 300 306 314 321 325 331 333 336 340 355 18 37
327 326 327 330 311 310 321 332 336 333 329 326 325 321 315 316 308 298 286 268 246 235 228 224 219 213 211 212 211 218 226 233 250 270 275 281 287 290 297 299 305 311 315 319 319 319 316 321 341
324 324 321 311 294 310 330 333 327 323 324 324 322 318 313 314 304 300 286 270 241 233 233 231 225 218 215 214 213 219 223 229 243 258 270 275 278 280 286 289 291 300 308 309 309 308 308 305 308
320 322 318 308 302 319 329 319 310 316 319 319 317 314 310 313 308 302 289 272 249 239 233 232 231 224 221 220 217 219 225 229 237 249 261 268 275 279 282 287 291 296 301 301 300 297 299 303 304
314 313 303 296 302 312 317 308 307 311 318 318 315 313 314 312 309 299 288 272 257 246 234 233 231 228 224 222 221 223 228 232 239 248 251 261 270 275 281 285 291 298 297 293 293 291 289 293 296
303 295 278 278 288 299 302 304 308 310 312 314 314 315 314 312 308 300 287 273 257 255 243 233 230 232 229 226 226 227 230 234 242 247 247 258 269 273 279 283 288 294 293 288 288 290 287 286 290
296 283 269 271 283 293 294 297 302 305 309 311 314 316 311 307 300 295 283 274 260 250 242 238 234 232 231 230 227 229 233 237 242 249 252 256 264 272 276 281 287 291 289 286 283 284 284 283 284
288 275 271 276 287 299 296 298 304 308 312 315 317 316 312 306 300 289 280 273 264 251 243 237 233 232 230 227 227 229 235 241 244 248 253 256 260 265 269 277 283 286 283 280 278 280 281 281 280
278 267 273 279 287 293 293 298 302 308 314 316 317 316 313 309 301 289 279 269 258 248 240 233 231 231 228 226 227 229 233 240 246 251 253 254 256 262 266 273 277 278 277 275 272 276 281 282 278
271 266 272 277 283 289 290 295 300 309 314 317 317 317 314 311 303 293 282 263 253 247 242 236 227 226 225 224 226 228 231 239 247 250 250 252 253 260 264 268 272 272 271 272 269 273 282 284 279
265 262 270 276 281 282 285 294 301 311 313 316 317 315 313 315 307 298 286 265 255 252 244 231 228 227 225 223 225 227 230 238 245 244 245 249 250 252 259 263 267 267 266 265 265 267 272 278 278
269 263 265 271 281 285 287 292 305 309 313 318 318 317 314 313 311 303 287 273 259 251 246 234 226 224 224 223 224 227 229 232 238 236 237 245 243 247 255 260 257 253 255 254 253 254 263 270 272
272 272 276 282 287 287 292 301 307 314 320 322 323 321 319 315 310 306 293 277 263 251 240 235 226 224 224 225 223 225 228 231 235 238 233 236 240 248 250 248 243 238 244 246 243 245 258 269 278
276 279 280 287 296 295 298 310 321 325 327 326 324 321 319 316 310 305 293 276 265 247 238 232 226 224 223 222 223 226 228 228 232 234 229 227 233 241 239 236 229 228 234 236 237 243 250 257 268
268 271 286 304 308 308 306 317 324 327 327 325 321 320 318 316 311 307 295 276 258 237 232 228 226 223 222 221 223 226 226 225 225 223 219 221 225 230 227 224 224 224 224 222 222 230 245 259 270
260 269 287 307 313 310 312 318 322 323 321 322 320 320 321 317 312 308 301 278 258 234 224 222 222 218 219 220 220 219 221 218 217 214 212 216 217 218 216 216 215 213 212 210 212 214 229 254 263
254 267 286 303 310 310 312 316 316 318 316 317 319 319 318 317 315 308 297 274 252 229 219 219 217 213 217 217 212 212 210 209 209 207 206 210 207 207 206 208 206 205 201 201 200 199 210 236 261
257 271 286 294 300 306 307 306 306 311 314 318 319 322 320 319 318 312 294 272 241 220 216 215 212 211 211 207 203 202 201 203 206 203 201 201 201 202 202 199 195 190 187 184 179 171 164 143 100
259 274 285 288 293 295 297 296 300 303 310 314 319 325 326 325 328 320 305 280 234 218 212 209 210 206 201 198 197 195 196 201 203 198 196 196 194 191 190 187 183 180 176 174 171 166 159 146 128
252 268 278 283 287 292 293 295 297 303 307 315 317 322 328 330 332 332 324 250 218 204 206 208 203 197 192 189 191 190 193 196 194 192 192 190 187 185 184 183 181 178 174 172 168 165 159 158 161
249 262 273 279 283 286 289 293 294 299 303 310 323 329 338 339 341 337 338 181 176 178 191 188 183 184 184 183 183 186 188 189 190 189 187 187 184 181 180 179 179 178 174 172 169 168 169 174 176
245 258 270 277 281 284 289 294 297 298 301 305 323 337 344 348 356 359 1 136 165 160 173 177 177 175 177 179 181 183 185 188 187 186 185 182 179 178 179 178 178 177 174 176 177 181 189 192 207
243 256 267 273 278 286 293 298 300 303 302 306 325 333 342 349 2 16 32 93 141 155 160 171 173 174 177 178 178 181 183 185 183 183 184 181 177 178 179 179 179 179 180 185 195 205 222 242 259
235 250 263 270 277 287 297 305 301 297 290 297 329 345 359 3 9 35 46 88 126 146 159 169 175 177 178 178 180 182 182 183 183 185 184 183 181 181 185 185 189 192 196 203 213 226 247 262 278
234 245 260 271 280 287 295 305 300 297 287 302 329 348 359 10 19 53 74 102 132 145 157 165 168 173 179 180 181 183 182 185 186 188 188 187 188 190 192 195 200 207 213 221 233 246 259 271 284
236 245 257 268 275 281 292 301 295 306 297 295 321 345 354 15 41 57 85 99 127 146 158 164 169 175 181 185 185 189 191 192 193 194 195 194 194 196 200 206 211 217 227 238 247 256 264 275 284
239 243 250 259 269 275 285 294 300 301 298 301 315 336 343 345 14 116 140 148 151 156 163 165 171 174 178 182 187 191 192 193 194 194 195 196 200 204 211 218 223 228 238 248 256 263 271 279 285
241 246 252 261 266 274 281 288 291 298 304 306 302 303 314 312 273 213 201 185 178 169 170 172 174 178 182 184 187 192 196 197 199 199 202 205 210 216 224 232 236 241 249 257 262 267 274 280 285
244 246 253 259 262 268 275 279 279 289 295 297 297 286 287 279 240 227 227 210 197 191 187 183 184 186 189 191 195 199 201 202 204 206 210 216 222 229 235 241 246 252 257 263 267 269 275 280 283
Height
5908 5907 5906 5906 5906 5904 5902 5900 5898 5898 5897 5896 5896 5896 5896 5897 5897 5898 5895 5893 5894 5894 5894 5895 5896 5896 5897 5898 5899 5899 5900 5900 5901 5901 5901 5901 5901 5901 5901 5900 5900 5900 5899 5899 5898 5898 5898 5897 5897
5908 5906 5906 5905 5904 5903 5901 5899 5897 5897 5896 5895 5895 5895 5896 5895 5895 5894 5892 5892 5892 5893 5893 5894 5895 5896 5897 5898 5898 5899 5900 5900 5900 5901 5901 5901 5901 5901 5901 5901 5900 5900 5900 5899 5899 5898 5898 5898 5897
5907 5906 5905 5904 5903 5902 5900 5898 5897 5896 5895 5894 5894 5893 5894 5894 5893 5892 5891 5890 5890 5891 5892 5893 5894 5895 5896 5897 5898 5899 5899 5900 5900 5901 5901 5901 5901 5901 5901 5901 5900 5900 5900 5899 5899 5898 5898 5898 5897
5906 5905 5904 5904 5902 5900 5898 5896 5895 5894 5894 5893 5892 5892 5891 5892 5891 5890 5889 5889 5888 5889 5890 5892 5893 5894 5895 5896 5897 5898 5898 5899 5900 5900 5901 5901 5901 5901 5901 5901 5900 5900 5900 5899 5899 5898 5898 5897 5897
5905 5904 5904 5902 5901 5899 5896 5895 5895 5894 5893 5891 5891 5890 5888 5889 5888 5887 5887 5887 5887 5888 5888 5890 5891 5892 5893 5894 5896 5896 5897 5898 5899 5899 5900 5900 5900 5901 5901 5900 5900 5900 5899 5899 5899 5898 5898 5897 5897
5904 5903 5902 5901 5899 5897 5895 5894 5893 5892 5891 5890 5889 5888 5886 5886 5885 5884 5884 5884 5884 5885 5886 5888 5889 5890 5892 5893 5894 5895 5896 5897 5898 5898 5899 5899 5900 5900 5900 5900 5900 5899 5899 5899 5898 5898 5897 5897 5897
5904 5902 5901 5899 5897 5895 5894 5893 5891 5890 5889 5889 5887 5886 5884 5884 5883 5882 5881 5881 5882 5883 5884 5885 5887 5889 5890 5891 5893 5894 5895 5896 5896 5897 5898 5898 5899 5899 5899 5899 5899 5898 5898 5898 5897 5897 5897 5896 5896
5901 5901 5899 5897 5895 5894 5893 5892 5890 5888 5887 5886 5885 5883 5881 5882 5880 5879 5878 5879 5879 5880 5880 5882 5884 5886 5888 5889 5891 5892 5893 5894 5895 5896 5896 5897 5897 5898 5898 5898 5897 5897 5897 5897 5896 5896 5895 5895 5896
5899 5899 5896 5895 5893 5892 5891 5889 5888 5886 5885 5884 5882 5880 5878 5877 5877 5876 5875 5875 5875 5876 5878 5879 5881 5883 5885 5887 5888 5890 5891 5892 5893 5894 5895 5895 5896 5896 5896 5896 5896 5896 5896 5895 5895 5895 5894 5894 5895
5897 5896 5894 5893 5891 5890 5889 5888 5886 5884 5882 5881 5879 5877 5874 5873 5872 5872 5871 5870 5870 5872 5873 5875 5878 5880 5882 5884 5885 5887 5889 5890 5891 5892 5893 5893 5894 5894 5894 5894 5894 5894 5894 5894 5894 5893 5893 5893 5893
5894 5893 5892 5891 5889 5889 5887 5886 5884 5882 5880 5878 5876 5873 5871 5869 5867 5867 5866 5865 5864 5865 5868 5871 5874 5877 5879 5881 5883 5885 5886 5888 5889 5890 5891 5891 5892 5892 5892 5893 5893 5893 5893 5892 5892 5892 5891 5891 5892
5892 5891 5889 5888 5887 5886 5886 5884 5882 5880 5878 5876 5873 5870 5867 5865 5863 5862 5863 5862 5861 5863 5865 5867 5870 5873 5875 5878 5880 5883 5884 5885 5887 5888 5889 5889 5890 5890 5891 5891 5891 5891 5891 5891 5891 5890 5890 5890 5890
5889 5887 5886 5885 5885 5884 5883 5881 5880 5878 5876 5873 5870 5867 5864 5862 5859 5858 5857 5858 5858 5859 5861 5864 5867 5870 5872 5875 5878 5880 5882 5883 5885 5886 5887 5888 5888 5889 5889 5889 5889 5889 5889 5889 5889 5889 5889 5889 5889
5886 5885 5884 5883 5883 5882 5880 5879 5877 5874 5872 5870 5867 5864 5862 5859 5856 5854 5853 5853 5854 5855 5857 5859 5863 5866 5869 5872 5875 5877 5879 5881 5882 5884 5885 5886 5887 5887 5887 5887 5888 5888 5888 5888 5888 5888 5888 5888 5888
5883 5883 5882 5881 5880 5879 5878 5876 5874 5871 5869 5867 5864 5861 5858 5856 5853 5850 5848 5848 5849 5850 5853 5855 5859 5861 5864 5868 5871 5874 5876 5878 5880 5881 5883 5884 5885 5885 5886 5886 5887 5887 5887 5887 5887 5887 5888 5888 5888
5881 5881 5880 5879 5877 5876 5876 5873 5871 5868 5866 5864 5862 5859 5856 5852 5849 5846 5844 5843 5844 5846 5849 5852 5855 5858 5861 5864 5868 5870 5873 5875 5877 5879 5880 5882 5883 5884 5885 5885 5886 5886 5886 5887 5887 5887 5887 5887 5887
5878 5877 5876 5876 5874 5873 5872 5870 5868 5866 5864 5862 5859 5856 5852 5849 5846 5843 5841 5839 5839 5841 5845 5848 5851 5855 5858 5861 5864 5867 5869 5872 5874 5876 5878 5879 5881 5882 5883 5884 5884 5885 5885 5886 5886 5886 5886 5886 5886
5874 5874 5873 5872 5871 5870 5868 5866 5865 5863 5860 5859 5856 5852 5849 5846 5843 5839 5836 5835 5834 5836 5839 5843 5847 5851 5854 5858 5861 5864 5866 5869 5871 5874 5876 5877 5879 5881 5881 5882 5883 5884 5884 5885 5885 5885 5885 5886 5886
5871 5870 5870 5869 5868 5866 5864 5863 5861 5859 5858 5856 5853 5849 5846 5843 5839 5835 5832 5830 5829 5832 5835 5839 5842 5847 5851 5854 5857 5861 5864 5867 5869 5871 5874 5876 5877 5879 5880 5881 5882 5883 5884 5884 5884 5885 5885 5885 5885
5867 5867 5867 5867 5865 5864 5862 5860 5858 5856 5855 5853 5850 5847 5843 5840 5836 5833 5829 5827 5828 5829 5831 5836 5839 5842 5847 5851 5855 5858 5862 5865 5867 5869 5872 5874 5876 5877 5878 5880 5881 5882 5883 5883 5884 5884 5885 5885 5885
5864 5864 5864 5864 5863 5860 5859 5858 5856 5855 5853 5851 5848 5845 5841 5838 5835 5832 5828 5827 5828 5829 5832 5835 5837 5840 5845 5849 5853 5857 5860 5863 5866 5868 5870 5872 5874 5876 5877 5878 5880 5881 5882 5883 5883 5883 5884 5884 5884
5861 5862 5861 5861 5860 5859 5858 5855 5854 5852 5851 5849 5846 5844 5841 5837 5834 5832 5829 5828 5829 5830 5831 5834 5837 5840 5843 5847 5851 5855 5859 5862 5864 5867 5869 5871 5872 5874 5876 5877 5879 5880 5881 5882 5882 5883 5883 5883 5883
5857 5858 5858 5858 5857 5856 5855 5853 5852 5850 5848 5846 5844 5842 5839 5837 5834 5832 5830 5829 5829 5830 5832 5834 5837 5840 5843 5847 5850 5854 5858 5861 5863 5865 5867 5869 5871 5873 5875 5876 5878 5879 5880 5881 5881 5882 5882 5882 5882
5853 5854 5854 5854 5854 5853 5852 5851 5849 5847 5846 5844 5842 5839 5838 5836 5834 5832 5831 5830 5830 5831 5833 5835 5837 5840 5843 5847 5850 5853 5856 5859 5861 5864 5866 5868 5870 5872 5874 5875 5877 5878 5879 5880 5880 5880 5881 5881 5880
5849 5850 5851 5850 5850 5850 5849 5847 5846 5845 5843 5842 5841 5838 5837 5835 5833 5832 5832 5831 5832 5832 5833 5835 5837 5840 5843 5846 5849 5853 5856 5858 5860 5863 5864 5866 5869 5871 5873 5874 5876 5877 5878 5878 5878 5879 5879 5879 5878
5845 5846 5847 5847 5847 5846 5845 5844 5844 5843 5841 5840 5839 5837 5836 5835 5833 5833 5833 5833 5833 5833 5834 5836 5837 5839 5843 5846 5849 5852 5855 5857 5859 5862 5863 5865 5868 5870 5871 5873 5874 5875 5876 5876 5876 5876 5876 5876 5876
5841 5842 5843 5843 5843 5843 5842 5842 5841 5840 5839 5839 5837 5835 5835 5834 5833 5833 5833 5834 5834 5834 5835 5837 5838 5840 5843 5845 5848 5851 5854 5856 5858 5860 5862 5864 5866 5868 5870 5871 5872 5873 5873 5874 5874 5874 5874 5874 5873
5837 5838 5839 5839 5839 5838 5839 5839 5839 5838 5837 5837 5835 5834 5834 5833 5833 5833 5834 5834 5835 5835 5836 5837 5839 5840 5842 5845 5847 5850 5852 5854 5856 5858 5860 5863 5864 5866 5867 5868 5869 5870 5870 5871 5871 5871 5871 5871 5870
5833 5834 5834 5834 5835 5835 5835 5838 5837 5836 5835 5834 5834 5833 5832 5832 5832 5832 5833 5834 5834 5835 5836 5837 5839 5840 5842 5844 5847 5849 5851 5853 5855 5857 5858 5860 5862 5864 5865 5866 5866 5867 5867 5867 5867 5867 5867 5867 5866
5828 5829 5830 5830 5831 5831 5831 5835 5833 5833 5833 5832 5832 5832 5831 5830 5831 5831 5832 5833 5833 5835 5836 5837 5838 5840 5842 5844 5846 5847 5849 5851 5853 5854 5856 5858 5860 5861 5862 5862 5863 5863 5863 5863 5863 5863 5862 5862 5861